Home > Weather > Mechernich > Past weeks

Flag for Germany Past Weather in Mechernich, North Rhine-Westphalia, Germany — Yesterday and Last 2 Weeks

Now
88 °F

Pleasantly warm.


Feels Like: 87 °F
Forecast: 64 / 84 °F
Wind: 10 mph from Southeast

Location: Noervenich

Current Time: Aug 24, 2016 at 4:00:21 PM

Latest Report: Aug 24, 2016 at 3:20 PM


Visibility: N/A

Pressure: 30.12 "Hg

Humidity: 38%

Dew Point: 59 °F

Location of MechernichLocation

Past Weather in Mechernich — Graph

°F

Mechernich Temperature Yesterday

Maximum temperature yesterday: 84 °F (at 5:20 PM)
Minimum temperature yesterday: 55 °F (at 4:20 AM)
Average temperature yesterday: 71 °F

High & Low Weather Summary for the Past Weeks

 TemperatureHumidityPressure
High88 °F (Aug 24, 2:20 PM)100% (Aug 11, 10:20 PM)30.33 "Hg (Aug 11, 10:20 PM)
Low46 °F (Aug 11, 5:20 AM)38% (Aug 20, 7:20 PM)29.77 "Hg (Aug 18, 4:20 PM)
Average64 °F72%30.11 "Hg
* Reported Aug 9 2:20 PM — Aug 24 2:20 PM, Mechernich, Weather by CustomWeather, © 2016

Note: Actual official high and low records may vary slightly from our data, if they occured in-between our weather recording intervals... More about our weather records

Advertising

Mechernich Weather History for the Previous 24 Hours

Scroll right to see more
 ConditionsComfort  
Time TempWeatherWind HumidityBarometerVisibility
2:20 PM
Wed, Aug 24
88 °FWarm.10 mph40%30.15 "HgN/A
1:20 PM86 °FWarm.9 mph43%30.15 "HgN/A
12:20 PM84 °FWarm.8 mph45%30.18 "HgN/A
11:20 AM81 °FWarm.9 mph51%30.18 "HgN/A
10:20 AM77 °FWarm.9 mph54%30.18 "HgN/A
9:20 AM72 °FMild.6 mph61%30.21 "HgN/A
8:20 AM66 °FMild.5 mph68%30.21 "HgN/A
7:20 AM63 °FMild.2 mph73%30.21 "HgN/A
6:20 AM63 °FMild.5 mph73%30.18 "HgN/A
5:20 AM63 °FMild.6 mph77%30.18 "HgN/A
4:20 AM63 °FMild.5 mph77%30.21 "HgN/A
3:20 AM63 °FMild.5 mph77%30.21 "HgN/A
2:20 AM64 °FMild.6 mph78%30.21 "HgN/A
1:20 AM66 °FMild.5 mph73%30.24 "HgN/A
12:20 AM66 °FMild.3 mph78%30.24 "HgN/A
11:20 PM
Tue, Aug 23
70 °FMild.3 mph69%30.24 "HgN/A
10:20 PM72 °FMild.2 mph69%30.24 "HgN/A
9:20 PM73 °FPassing clouds.5 mph61%30.24 "HgN/A
8:20 PM79 °FPassing clouds.7 mph51%30.24 "HgN/A
7:20 PM82 °FPassing clouds.6 mph45%30.24 "HgN/A
6:20 PM82 °FPassing clouds.7 mph45%30.24 "HgN/A
5:20 PM84 °FPassing clouds.5 mph43%30.27 "HgN/A
4:20 PM82 °FPassing clouds.6 mph45%30.27 "HgN/A
Weather by CustomWeather, © 2016

See weather overviewHow to use our weather pages